Year,Month,Day,Hour,Minute,Value (Times are PST for temperature in C)
2011,04,05,00,00,5.80
2011,04,05,00,01,5.70
2011,04,05,00,02,5.60
2011,04,05,00,03,5.50
2011,04,05,00,04,5.30
2011,04,05,00,05,5.20
2011,04,05,00,06,5.00
2011,04,05,00,07,4.90
2011,04,05,00,08,4.80
2011,04,05,00,09,4.70
2011,04,05,00,10,4.80
2011,04,05,00,11,4.80
2011,04,05,00,12,4.80
2011,04,05,00,13,4.80
2011,04,05,00,14,4.80
2011,04,05,00,15,4.80
2011,04,05,00,16,4.80
2011,04,05,00,17,4.70
2011,04,05,00,18,4.70
2011,04,05,00,19,4.70
2011,04,05,00,20,4.70
2011,04,05,00,21,4.70
2011,04,05,00,22,4.70
2011,04,05,00,23,4.70
2011,04,05,00,24,4.70
2011,04,05,00,25,4.70
2011,04,05,00,26,4.70
2011,04,05,00,27,4.70
2011,04,05,00,28,4.60
2011,04,05,00,29,4.60
2011,04,05,00,30,4.50
2011,04,05,00,31,4.30
2011,04,05,00,32,4.10
2011,04,05,00,33,4.00
2011,04,05,00,34,3.90
2011,04,05,00,35,3.80
2011,04,05,00,36,3.70
2011,04,05,00,37,3.70
2011,04,05,00,38,3.60
2011,04,05,00,39,3.60
2011,04,05,00,40,3.50
2011,04,05,00,41,3.60
2011,04,05,00,42,3.70
2011,04,05,00,43,3.70
2011,04,05,00,44,3.80
2011,04,05,00,45,3.80
2011,04,05,00,46,3.90
2011,04,05,00,47,4.00
2011,04,05,00,48,4.00
2011,04,05,00,49,4.10
2011,04,05,00,50,4.10
2011,04,05,00,51,4.10
2011,04,05,00,52,4.20
2011,04,05,00,53,4.20
2011,04,05,00,54,4.10
2011,04,05,00,55,4.00
2011,04,05,00,56,3.90
2011,04,05,00,57,3.80
2011,04,05,00,58,3.80
2011,04,05,00,59,3.80
2011,04,05,01,00,3.70
2011,04,05,01,01,3.70
2011,04,05,01,02,3.70
2011,04,05,01,03,3.60
2011,04,05,01,04,3.50
2011,04,05,01,05,3.50
2011,04,05,01,06,3.40
2011,04,05,01,07,3.40
2011,04,05,01,08,3.40
2011,04,05,01,09,3.40
2011,04,05,01,10,3.50
2011,04,05,01,11,3.60
2011,04,05,01,12,3.60
2011,04,05,01,13,3.60
2011,04,05,01,14,3.70
2011,04,05,01,15,3.70
2011,04,05,01,16,3.70
2011,04,05,01,17,3.70
2011,04,05,01,18,3.70
2011,04,05,01,19,3.60
2011,04,05,01,20,3.60
2011,04,05,01,21,3.60
2011,04,05,01,22,3.70
2011,04,05,01,23,3.70
2011,04,05,01,24,3.80
2011,04,05,01,25,3.90
2011,04,05,01,26,4.00
2011,04,05,01,27,4.10
2011,04,05,01,28,4.10
2011,04,05,01,29,4.10
2011,04,05,01,30,4.10
2011,04,05,01,31,4.10
2011,04,05,01,32,4.10
2011,04,05,01,33,4.20
2011,04,05,01,34,4.20
2011,04,05,01,35,4.10
2011,04,05,01,36,4.10
2011,04,05,01,37,4.00
2011,04,05,01,38,4.00
2011,04,05,01,39,4.00
2011,04,05,01,40,4.10
2011,04,05,01,41,4.10
2011,04,05,01,42,4.10
2011,04,05,01,43,4.00
2011,04,05,01,44,3.90
2011,04,05,01,45,3.80
2011,04,05,01,46,3.70
2011,04,05,01,47,3.60
2011,04,05,01,48,3.60
2011,04,05,01,49,3.60
2011,04,05,01,50,3.60
2011,04,05,01,51,3.70
2011,04,05,01,52,3.70
2011,04,05,01,53,3.70
2011,04,05,01,54,3.80
2011,04,05,01,55,4.10
2011,04,05,01,56,4.40
2011,04,05,01,57,4.60
2011,04,05,01,58,4.90
2011,04,05,01,59,5.10
2011,04,05,02,00,5.20
2011,04,05,02,01,5.30
2011,04,05,02,02,5.30
2011,04,05,02,03,5.40
2011,04,05,02,04,5.40
2011,04,05,02,05,5.30
2011,04,05,02,06,5.20
2011,04,05,02,07,5.10
2011,04,05,02,08,5.00
2011,04,05,02,09,5.00
2011,04,05,02,10,4.90
2011,04,05,02,11,4.90
2011,04,05,02,12,4.90
2011,04,05,02,13,4.90
2011,04,05,02,14,4.90
2011,04,05,02,15,4.90
2011,04,05,02,16,4.90
2011,04,05,02,17,5.00
2011,04,05,02,18,5.10
2011,04,05,02,19,5.20
2011,04,05,02,20,5.30
2011,04,05,02,21,5.30
2011,04,05,02,22,5.30
2011,04,05,02,23,5.30
2011,04,05,02,24,5.30
2011,04,05,02,25,5.30
2011,04,05,02,26,5.40
2011,04,05,02,27,5.50
2011,04,05,02,28,5.70
2011,04,05,02,29,5.70
2011,04,05,02,30,5.80
2011,04,05,02,31,5.90
2011,04,05,02,32,5.90
2011,04,05,02,33,5.90
2011,04,05,02,34,5.90
2011,04,05,02,35,5.90
2011,04,05,02,36,5.90
2011,04,05,02,37,5.80
2011,04,05,02,38,5.80
2011,04,05,02,39,5.70
2011,04,05,02,40,5.60
2011,04,05,02,41,5.50
2011,04,05,02,42,5.30
2011,04,05,02,43,5.20
2011,04,05,02,44,5.10
2011,04,05,02,45,5.10
2011,04,05,02,46,5.10
2011,04,05,02,47,5.10
2011,04,05,02,48,5.00
2011,04,05,02,49,4.90
2011,04,05,02,50,4.90
2011,04,05,02,51,4.90
2011,04,05,02,52,4.90
2011,04,05,02,53,4.90
2011,04,05,02,54,4.90
2011,04,05,02,55,5.00
2011,04,05,02,56,5.10
2011,04,05,02,57,5.10
2011,04,05,02,58,5.30
2011,04,05,02,59,5.30
2011,04,05,03,00,5.30
2011,04,05,03,01,5.30
2011,04,05,03,02,5.20
2011,04,05,03,03,5.10
2011,04,05,03,04,5.10
2011,04,05,03,05,5.10
2011,04,05,03,06,5.00
2011,04,05,03,07,4.90
2011,04,05,03,08,4.90
2011,04,05,03,09,4.80
2011,04,05,03,10,4.80
2011,04,05,03,11,4.80
2011,04,05,03,12,4.80
2011,04,05,03,13,4.90
2011,04,05,03,14,5.00
2011,04,05,03,15,5.10
2011,04,05,03,16,5.10
2011,04,05,03,17,5.10
2011,04,05,03,18,4.90
2011,04,05,03,19,4.70
2011,04,05,03,20,4.60
2011,04,05,03,21,4.60
2011,04,05,03,22,4.50
2011,04,05,03,23,4.50
2011,04,05,03,24,4.50
2011,04,05,03,25,4.50
2011,04,05,03,26,4.50
2011,04,05,03,27,4.50
2011,04,05,03,28,4.40
2011,04,05,03,29,4.40
2011,04,05,03,30,4.30
2011,04,05,03,31,4.30
2011,04,05,03,32,4.20
2011,04,05,03,33,4.20
2011,04,05,03,34,4.10
2011,04,05,03,35,4.10
2011,04,05,03,36,4.10
2011,04,05,03,37,4.10
2011,04,05,03,38,4.20
2011,04,05,03,39,4.20
2011,04,05,03,40,4.20
2011,04,05,03,41,4.20
2011,04,05,03,42,4.20
2011,04,05,03,43,4.20
2011,04,05,03,44,4.20
2011,04,05,03,45,4.20
2011,04,05,03,46,4.10
2011,04,05,03,47,4.10
2011,04,05,03,48,4.10
2011,04,05,03,49,4.00
2011,04,05,03,50,4.00
2011,04,05,03,51,3.90
2011,04,05,03,52,4.00
2011,04,05,03,53,4.00
2011,04,05,03,54,4.00
2011,04,05,03,55,4.10
2011,04,05,03,56,4.20
2011,04,05,03,57,4.20
2011,04,05,03,58,4.20
2011,04,05,03,59,4.20
2011,04,05,04,00,4.20
2011,04,05,04,01,4.20
2011,04,05,04,02,4.20
2011,04,05,04,03,4.20
2011,04,05,04,04,4.20
2011,04,05,04,05,4.30
2011,04,05,04,06,4.30
2011,04,05,04,07,4.30
2011,04,05,04,08,4.30
2011,04,05,04,09,4.30
2011,04,05,04,10,4.20
2011,04,05,04,11,4.20
2011,04,05,04,12,4.20
2011,04,05,04,13,4.20
2011,04,05,04,14,4.10
2011,04,05,04,15,4.10
2011,04,05,04,16,4.10
2011,04,05,04,17,4.10
2011,04,05,04,18,4.10
2011,04,05,04,19,4.10
2011,04,05,04,20,4.10
2011,04,05,04,21,4.20
2011,04,05,04,22,4.30
2011,04,05,04,23,4.30
2011,04,05,04,24,4.40
2011,04,05,04,25,4.50
2011,04,05,04,26,4.50
2011,04,05,04,27,4.70
2011,04,05,04,28,4.80
2011,04,05,04,29,4.90
2011,04,05,04,30,4.90
2011,04,05,04,31,5.00
2011,04,05,04,32,5.10
2011,04,05,04,33,5.00
2011,04,05,04,34,4.90
2011,04,05,04,35,4.80
2011,04,05,04,36,4.70
2011,04,05,04,37,4.60
2011,04,05,04,38,4.50
2011,04,05,04,39,4.50
2011,04,05,04,40,4.40
2011,04,05,04,41,4.30
2011,04,05,04,42,4.30
2011,04,05,04,43,4.20
2011,04,05,04,44,4.20
2011,04,05,04,45,4.10
2011,04,05,04,46,4.00
2011,04,05,04,47,4.00
2011,04,05,04,48,3.90
2011,04,05,04,49,3.90
2011,04,05,04,50,3.90
2011,04,05,04,51,3.90
2011,04,05,04,52,3.90
2011,04,05,04,53,3.90
2011,04,05,04,54,4.00
2011,04,05,04,55,4.00
2011,04,05,04,56,4.10
2011,04,05,04,57,4.10
2011,04,05,04,58,4.20
2011,04,05,04,59,4.30
2011,04,05,05,00,4.40
2011,04,05,05,01,4.40
2011,04,05,05,02,4.40
2011,04,05,05,03,4.40
2011,04,05,05,04,4.40
2011,04,05,05,05,4.40
2011,04,05,05,06,4.30
2011,04,05,05,07,4.30
2011,04,05,05,08,4.30
2011,04,05,05,09,4.40
2011,04,05,05,10,4.40
2011,04,05,05,11,4.40
2011,04,05,05,12,4.30
2011,04,05,05,13,4.30
2011,04,05,05,14,4.20
2011,04,05,05,15,4.20
2011,04,05,05,16,4.10
2011,04,05,05,17,4.10
2011,04,05,05,18,4.00
2011,04,05,05,19,4.00
2011,04,05,05,20,4.00
2011,04,05,05,21,3.90
2011,04,05,05,22,3.90
2011,04,05,05,23,3.80
2011,04,05,05,24,3.80
2011,04,05,05,25,3.70
2011,04,05,05,26,3.60
2011,04,05,05,27,3.60
2011,04,05,05,28,3.60
2011,04,05,05,29,3.60
2011,04,05,05,30,3.60
2011,04,05,05,31,3.70
2011,04,05,05,32,3.70
2011,04,05,05,33,3.80
2011,04,05,05,34,3.80
2011,04,05,05,35,3.80
2011,04,05,05,36,3.70
2011,04,05,05,37,3.80
2011,04,05,05,38,4.00
2011,04,05,05,39,4.10
2011,04,05,05,40,4.20
2011,04,05,05,41,4.30
2011,04,05,05,42,4.40
2011,04,05,05,43,4.40
2011,04,05,05,44,4.40
2011,04,05,05,45,4.30
2011,04,05,05,46,4.20
2011,04,05,05,47,4.10
2011,04,05,05,48,4.10
2011,04,05,05,49,4.20
2011,04,05,05,50,4.20
2011,04,05,05,51,4.20
2011,04,05,05,52,4.20
2011,04,05,05,53,4.20
2011,04,05,05,54,4.10
2011,04,05,05,55,4.10
2011,04,05,05,56,4.00
2011,04,05,05,57,3.90
2011,04,05,05,58,3.90
2011,04,05,05,59,3.80
2011,04,05,06,00,3.80
2011,04,05,06,01,3.80
2011,04,05,06,02,3.90
2011,04,05,06,03,3.90
2011,04,05,06,04,3.90
2011,04,05,06,05,3.90
2011,04,05,06,06,3.80
2011,04,05,06,07,3.70
2011,04,05,06,08,3.60
2011,04,05,06,09,3.60
2011,04,05,06,10,3.50
2011,04,05,06,11,3.50
2011,04,05,06,12,3.40
2011,04,05,06,13,3.40
2011,04,05,06,14,3.40
2011,04,05,06,15,3.40
2011,04,05,06,16,3.40
2011,04,05,06,17,3.40
2011,04,05,06,18,3.40
2011,04,05,06,19,3.40
2011,04,05,06,20,3.40
2011,04,05,06,21,3.40
2011,04,05,06,22,3.40
2011,04,05,06,23,3.50
2011,04,05,06,24,3.50
2011,04,05,06,25,3.50
2011,04,05,06,26,3.60
2011,04,05,06,27,3.60
2011,04,05,06,28,3.60
2011,04,05,06,29,3.70
2011,04,05,06,30,3.70
2011,04,05,06,31,3.70
2011,04,05,06,32,3.70
2011,04,05,06,33,3.60
2011,04,05,06,34,3.60
2011,04,05,06,35,3.60
2011,04,05,06,36,3.50
2011,04,05,06,37,3.50
2011,04,05,06,38,3.50
2011,04,05,06,39,3.50
2011,04,05,06,40,3.50
2011,04,05,06,41,3.60
2011,04,05,06,42,3.60
2011,04,05,06,43,3.60
2011,04,05,06,44,3.60
2011,04,05,06,45,3.60
2011,04,05,06,46,3.60
2011,04,05,06,47,3.60
2011,04,05,06,48,3.70
2011,04,05,06,49,3.70
2011,04,05,06,50,3.70
2011,04,05,06,51,3.80
2011,04,05,06,52,3.80
2011,04,05,06,53,3.80
2011,04,05,06,54,3.80
2011,04,05,06,55,3.80
2011,04,05,06,56,3.80
2011,04,05,06,57,3.80
2011,04,05,06,58,3.80
2011,04,05,06,59,3.90
2011,04,05,07,00,3.90
2011,04,05,07,01,3.90
2011,04,05,07,02,3.90
2011,04,05,07,03,3.90
2011,04,05,07,04,3.80
2011,04,05,07,05,3.80
2011,04,05,07,06,3.70
2011,04,05,07,07,3.70
2011,04,05,07,08,3.70
2011,04,05,07,09,3.60
2011,04,05,07,10,3.60
2011,04,05,07,11,3.60
2011,04,05,07,12,3.70
2011,04,05,07,13,3.70
2011,04,05,07,14,3.70
2011,04,05,07,15,3.70
2011,04,05,07,16,3.60
2011,04,05,07,17,3.50
2011,04,05,07,18,3.50
2011,04,05,07,19,3.40
2011,04,05,07,20,3.40
2011,04,05,07,21,3.40
2011,04,05,07,22,3.40
2011,04,05,07,23,3.40
2011,04,05,07,24,3.40
2011,04,05,07,25,3.30
2011,04,05,07,26,3.30
2011,04,05,07,27,3.30
2011,04,05,07,28,3.30
2011,04,05,07,29,3.30
2011,04,05,07,30,3.40
2011,04,05,07,31,3.40
2011,04,05,07,32,3.50
2011,04,05,07,33,3.50
2011,04,05,07,34,3.60
2011,04,05,07,35,3.60
2011,04,05,07,36,3.60
2011,04,05,07,37,3.70
2011,04,05,07,38,3.70
2011,04,05,07,39,3.70
2011,04,05,07,40,3.60
2011,04,05,07,41,3.60
2011,04,05,07,42,3.60
2011,04,05,07,43,3.50
2011,04,05,07,44,3.40
2011,04,05,07,45,3.40
2011,04,05,07,46,3.30
2011,04,05,07,47,3.30
2011,04,05,07,48,3.30
2011,04,05,07,49,3.30
2011,04,05,07,50,3.30
2011,04,05,07,51,3.20
2011,04,05,07,52,3.20
2011,04,05,07,53,3.20
2011,04,05,07,54,3.20
2011,04,05,07,55,3.20
2011,04,05,07,56,3.20
2011,04,05,07,57,3.20
2011,04,05,07,58,3.30
2011,04,05,07,59,3.30
2011,04,05,08,00,3.40
2011,04,05,08,01,3.40
2011,04,05,08,02,3.40
2011,04,05,08,03,3.50
2011,04,05,08,04,3.50
2011,04,05,08,05,3.50
2011,04,05,08,06,3.50
2011,04,05,08,07,3.50
2011,04,05,08,08,3.50
2011,04,05,08,09,3.50
2011,04,05,08,10,3.50
2011,04,05,08,11,3.50
2011,04,05,08,12,3.50
2011,04,05,08,13,3.50
2011,04,05,08,14,3.50
2011,04,05,08,15,3.50
2011,04,05,08,16,3.50
2011,04,05,08,17,3.50
2011,04,05,08,18,3.50
2011,04,05,08,19,3.50
2011,04,05,08,20,3.60
2011,04,05,08,21,3.60
2011,04,05,08,22,3.60
2011,04,05,08,23,3.60
2011,04,05,08,24,3.70
2011,04,05,08,25,3.70
2011,04,05,08,26,3.70
2011,04,05,08,27,3.80
2011,04,05,08,28,3.80
2011,04,05,08,29,3.80
2011,04,05,08,30,3.80
2011,04,05,08,31,3.80
2011,04,05,08,32,3.80
2011,04,05,08,33,3.80
2011,04,05,08,34,3.90
2011,04,05,08,35,3.90
2011,04,05,08,36,3.90
2011,04,05,08,37,3.90
2011,04,05,08,38,3.90
2011,04,05,08,39,3.90
2011,04,05,08,40,3.90
2011,04,05,08,41,3.90
2011,04,05,08,42,3.90
2011,04,05,08,43,3.90
2011,04,05,08,44,3.90
2011,04,05,08,45,3.90
2011,04,05,08,46,3.90
2011,04,05,08,47,3.80
2011,04,05,08,48,3.80
2011,04,05,08,49,3.80
2011,04,05,08,50,3.80
2011,04,05,08,51,3.80
2011,04,05,08,52,3.80
2011,04,05,08,53,3.80
2011,04,05,08,54,3.80
2011,04,05,08,55,3.80
2011,04,05,08,56,3.80
2011,04,05,08,57,3.90
2011,04,05,08,58,3.90
2011,04,05,08,59,3.90
2011,04,05,09,00,3.80
2011,04,05,09,01,3.80
2011,04,05,09,02,3.80
2011,04,05,09,03,3.90
2011,04,05,09,04,3.90
2011,04,05,09,05,3.90
2011,04,05,09,06,3.90
2011,04,05,09,07,3.90
2011,04,05,09,08,3.90
2011,04,05,09,09,3.90
2011,04,05,09,10,3.90
2011,04,05,09,11,3.90
2011,04,05,09,12,3.90
2011,04,05,09,13,3.90
2011,04,05,09,14,4.00
2011,04,05,09,15,4.00
2011,04,05,09,16,4.00
2011,04,05,09,17,4.00
2011,04,05,09,18,4.10
2011,04,05,09,19,4.10
2011,04,05,09,20,4.10
2011,04,05,09,21,4.10
2011,04,05,09,22,4.10
2011,04,05,09,23,4.10
2011,04,05,09,24,4.10
2011,04,05,09,25,4.10
2011,04,05,09,26,4.10
2011,04,05,09,27,4.10
2011,04,05,09,28,4.20
2011,04,05,09,29,4.20
2011,04,05,09,30,4.20
2011,04,05,09,31,4.20
2011,04,05,09,32,4.20
2011,04,05,09,33,4.20
2011,04,05,09,34,4.20
2011,04,05,09,35,4.20
2011,04,05,09,36,4.20
2011,04,05,09,37,4.20
2011,04,05,09,38,4.20
2011,04,05,09,39,4.30
2011,04,05,09,40,4.30
2011,04,05,09,41,4.30
2011,04,05,09,42,4.30
2011,04,05,09,43,4.30
2011,04,05,09,44,4.30
2011,04,05,09,45,4.30
2011,04,05,09,46,4.30
2011,04,05,09,47,4.30
2011,04,05,09,48,4.30
2011,04,05,09,49,4.40
2011,04,05,09,50,4.40
2011,04,05,09,51,4.40
2011,04,05,09,52,4.40
2011,04,05,09,53,4.40
2011,04,05,09,54,4.40
2011,04,05,09,55,4.40
2011,04,05,09,56,4.40
2011,04,05,09,57,4.50
2011,04,05,09,58,4.50
2011,04,05,09,59,4.50
2011,04,05,10,00,4.50
2011,04,05,10,01,4.50
2011,04,05,10,02,4.50
2011,04,05,10,03,4.50
2011,04,05,10,04,4.60
2011,04,05,10,05,4.60
2011,04,05,10,06,4.60
2011,04,05,10,07,4.60
2011,04,05,10,08,4.60
2011,04,05,10,09,4.60
2011,04,05,10,10,4.60
2011,04,05,10,11,4.60
2011,04,05,10,12,4.70
2011,04,05,10,13,4.70
2011,04,05,10,14,4.70
2011,04,05,10,15,4.70
2011,04,05,10,16,4.70
2011,04,05,10,17,4.70
2011,04,05,10,18,4.70
2011,04,05,10,19,4.70
2011,04,05,10,20,4.70
2011,04,05,10,21,4.70
2011,04,05,10,22,4.80
2011,04,05,10,23,4.80
2011,04,05,10,24,4.80
2011,04,05,10,25,4.80
2011,04,05,10,26,4.80
2011,04,05,10,27,4.80
2011,04,05,10,28,4.90
2011,04,05,10,29,4.90
2011,04,05,10,30,4.90
2011,04,05,10,31,4.90
2011,04,05,10,32,4.90
2011,04,05,10,33,5.00
2011,04,05,10,34,5.00
2011,04,05,10,35,5.10
2011,04,05,10,36,5.10
2011,04,05,10,37,5.10
2011,04,05,10,38,5.10
2011,04,05,10,39,5.10
2011,04,05,10,40,5.10
2011,04,05,10,41,5.10
2011,04,05,10,42,5.10
2011,04,05,10,43,5.20
2011,04,05,10,44,5.20
2011,04,05,10,45,5.20
2011,04,05,10,46,5.20
2011,04,05,10,47,5.20
2011,04,05,10,48,5.20
2011,04,05,10,49,5.20
2011,04,05,10,50,5.30
2011,04,05,10,51,5.30
2011,04,05,10,52,5.30
2011,04,05,10,53,5.30
2011,04,05,10,54,5.40
2011,04,05,10,55,5.40
2011,04,05,10,56,5.40
2011,04,05,10,57,5.40
2011,04,05,10,58,5.40
2011,04,05,10,59,5.40
2011,04,05,11,00,5.40
2011,04,05,11,01,5.40
2011,04,05,11,02,5.40
2011,04,05,11,03,5.40
2011,04,05,11,04,5.40
2011,04,05,11,05,5.40
2011,04,05,11,06,5.40
2011,04,05,11,07,5.50
2011,04,05,11,08,5.50
2011,04,05,11,09,5.50
2011,04,05,11,10,5.50
2011,04,05,11,11,5.50
2011,04,05,11,12,5.50
2011,04,05,11,13,5.50
2011,04,05,11,14,5.60
2011,04,05,11,15,5.60
2011,04,05,11,16,5.70
2011,04,05,11,17,5.60
2011,04,05,11,18,5.70
2011,04,05,11,19,5.70
2011,04,05,11,20,5.70
2011,04,05,11,21,5.70
2011,04,05,11,22,5.70
2011,04,05,11,23,5.70
2011,04,05,11,24,5.70
2011,04,05,11,25,5.70
2011,04,05,11,26,5.80
2011,04,05,11,27,5.80
2011,04,05,11,28,5.80
2011,04,05,11,29,5.80
2011,04,05,11,30,5.80
2011,04,05,11,31,5.90
2011,04,05,11,32,5.90
2011,04,05,11,33,5.90
2011,04,05,11,34,5.90
2011,04,05,11,35,5.90
2011,04,05,11,36,5.90
2011,04,05,11,37,5.90
2011,04,05,11,38,5.90
2011,04,05,11,39,5.90
2011,04,05,11,40,5.90
2011,04,05,11,41,5.90
2011,04,05,11,42,5.80
2011,04,05,11,43,5.80
2011,04,05,11,44,5.80
2011,04,05,11,45,5.80
2011,04,05,11,46,5.90
2011,04,05,11,47,5.90
2011,04,05,11,48,5.90
2011,04,05,11,49,5.90
2011,04,05,11,50,5.90
2011,04,05,11,51,5.90
2011,04,05,11,52,5.90
2011,04,05,11,53,6.00
2011,04,05,11,54,6.00
2011,04,05,11,55,6.10
2011,04,05,11,56,6.20
2011,04,05,11,57,6.20
2011,04,05,11,58,6.30
2011,04,05,11,59,6.30
2011,04,05,12,00,6.40
2011,04,05,12,01,6.40
2011,04,05,12,02,6.40
2011,04,05,12,03,6.50
2011,04,05,12,04,6.50
2011,04,05,12,05,6.50
2011,04,05,12,06,6.50
2011,04,05,12,07,6.50
2011,04,05,12,08,6.40
2011,04,05,12,09,6.40
2011,04,05,12,10,6.40
2011,04,05,12,11,6.40
2011,04,05,12,12,6.40
2011,04,05,12,13,6.50
2011,04,05,12,14,6.50
2011,04,05,12,15,6.50
2011,04,05,12,16,6.50
2011,04,05,12,17,6.60
2011,04,05,12,18,6.60
2011,04,05,12,19,6.60
2011,04,05,12,20,6.60
2011,04,05,12,21,6.60
2011,04,05,12,22,6.60
2011,04,05,12,23,6.60
2011,04,05,12,24,6.60
2011,04,05,12,25,6.70
2011,04,05,12,26,6.70
2011,04,05,12,27,6.70
2011,04,05,12,28,6.80
2011,04,05,12,29,6.80
2011,04,05,12,30,6.90
2011,04,05,12,31,6.90
2011,04,05,12,32,6.90
2011,04,05,12,33,6.90
2011,04,05,12,34,6.90
2011,04,05,12,35,6.90
2011,04,05,12,36,6.90
2011,04,05,12,37,6.90
2011,04,05,12,38,7.00
2011,04,05,12,39,7.00
2011,04,05,12,40,7.00
2011,04,05,12,41,7.10
2011,04,05,12,42,7.10
2011,04,05,12,43,7.20
2011,04,05,12,44,7.20
2011,04,05,12,45,7.20
2011,04,05,12,46,7.20
2011,04,05,12,47,7.20
2011,04,05,12,48,7.20
2011,04,05,12,49,7.20
2011,04,05,12,50,7.20
2011,04,05,12,51,7.20
2011,04,05,12,52,7.20
2011,04,05,12,53,7.20
2011,04,05,12,54,7.30
2011,04,05,12,55,7.30
2011,04,05,12,56,7.30
2011,04,05,12,57,7.30
2011,04,05,12,58,7.30
2011,04,05,12,59,7.40
2011,04,05,13,00,7.40
2011,04,05,13,01,7.30
2011,04,05,13,02,7.30
2011,04,05,13,03,7.40
2011,04,05,13,04,7.40
2011,04,05,13,05,7.40
2011,04,05,13,06,7.30
2011,04,05,13,07,7.30
2011,04,05,13,08,7.30
2011,04,05,13,09,7.30
2011,04,05,13,10,7.40
2011,04,05,13,11,7.40
2011,04,05,13,12,7.40
2011,04,05,13,13,7.50
2011,04,05,13,14,7.50
2011,04,05,13,15,7.50
2011,04,05,13,16,7.50
2011,04,05,13,17,7.60
2011,04,05,13,18,7.60
2011,04,05,13,19,7.80
2011,04,05,13,20,7.80
2011,04,05,13,21,8.00
2011,04,05,13,22,8.10
2011,04,05,13,23,8.20
2011,04,05,13,24,8.30
2011,04,05,13,25,8.40
2011,04,05,13,26,8.50
2011,04,05,13,27,8.60
2011,04,05,13,28,8.50
2011,04,05,13,29,8.40
2011,04,05,13,30,8.40
2011,04,05,13,31,8.30
2011,04,05,13,32,8.20
2011,04,05,13,33,8.10
2011,04,05,13,34,8.10
2011,04,05,13,35,8.10
2011,04,05,13,36,8.10
2011,04,05,13,37,8.10
2011,04,05,13,38,8.20
2011,04,05,13,39,8.10
2011,04,05,13,40,8.10
2011,04,05,13,41,8.10
2011,04,05,13,42,8.20
2011,04,05,13,43,8.20
2011,04,05,13,44,8.20
2011,04,05,13,45,8.20
2011,04,05,13,46,8.20
2011,04,05,13,47,8.20
2011,04,05,13,48,8.20
2011,04,05,13,49,8.30
2011,04,05,13,50,8.40
2011,04,05,13,51,8.50
2011,04,05,13,52,8.50
2011,04,05,13,53,8.40
2011,04,05,13,54,8.30
2011,04,05,13,55,8.20
2011,04,05,13,56,8.20
2011,04,05,13,57,8.10
2011,04,05,13,58,8.10
2011,04,05,13,59,8.10
2011,04,05,14,00,8.10
2011,04,05,14,01,8.10
2011,04,05,14,02,8.10
2011,04,05,14,03,8.10
2011,04,05,14,04,8.10
2011,04,05,14,05,8.10
2011,04,05,14,06,8.10
2011,04,05,14,07,8.20
2011,04,05,14,08,8.20
2011,04,05,14,09,8.20
2011,04,05,14,10,8.30
2011,04,05,14,11,8.30
2011,04,05,14,12,8.30
2011,04,05,14,13,8.30
2011,04,05,14,14,8.40
2011,04,05,14,15,8.40
2011,04,05,14,16,8.40
2011,04,05,14,17,8.40
2011,04,05,14,18,8.40
2011,04,05,14,19,8.40
2011,04,05,14,20,8.50
2011,04,05,14,21,8.60
2011,04,05,14,22,8.50
2011,04,05,14,23,8.50
2011,04,05,14,24,8.40
2011,04,05,14,25,8.40
2011,04,05,14,26,8.40
2011,04,05,14,27,8.50
2011,04,05,14,28,8.60
2011,04,05,14,29,8.70
2011,04,05,14,30,8.80
2011,04,05,14,31,8.80
2011,04,05,14,32,8.80
2011,04,05,14,33,8.80
2011,04,05,14,34,8.90
2011,04,05,14,35,8.90
2011,04,05,14,36,8.90
2011,04,05,14,37,8.90
2011,04,05,14,38,8.90
2011,04,05,14,39,9.00
2011,04,05,14,40,9.00
2011,04,05,14,41,9.00
2011,04,05,14,42,9.10
2011,04,05,14,43,9.20
2011,04,05,14,44,9.20
2011,04,05,14,45,9.20
2011,04,05,14,46,9.20
2011,04,05,14,47,9.20
2011,04,05,14,48,9.30
2011,04,05,14,49,9.30
2011,04,05,14,50,9.30
2011,04,05,14,51,9.40
2011,04,05,14,52,9.40
2011,04,05,14,53,9.50
2011,04,05,14,54,9.60
2011,04,05,14,55,9.60
2011,04,05,14,56,9.60
2011,04,05,14,57,9.50
2011,04,05,14,58,9.40
2011,04,05,14,59,9.30
2011,04,05,15,00,9.30
2011,04,05,15,01,9.30
2011,04,05,15,02,9.40
2011,04,05,15,03,9.50
2011,04,05,15,04,9.60
2011,04,05,15,05,9.70
2011,04,05,15,06,9.70
2011,04,05,15,07,9.70
2011,04,05,15,08,9.80
2011,04,05,15,09,9.70
2011,04,05,15,10,9.60
2011,04,05,15,11,9.50
2011,04,05,15,12,9.40
2011,04,05,15,13,9.30
2011,04,05,15,14,9.20
2011,04,05,15,15,9.10
2011,04,05,15,16,9.00
2011,04,05,15,17,9.00
2011,04,05,15,18,9.00
2011,04,05,15,19,9.00
2011,04,05,15,20,8.90
2011,04,05,15,21,9.00
2011,04,05,15,22,9.00
2011,04,05,15,23,9.00
2011,04,05,15,24,9.10
2011,04,05,15,25,9.10
2011,04,05,15,26,9.10
2011,04,05,15,27,9.20
2011,04,05,15,28,9.20
2011,04,05,15,29,9.30
2011,04,05,15,30,9.40
2011,04,05,15,31,9.60
2011,04,05,15,32,9.70
2011,04,05,15,33,9.90
2011,04,05,15,34,9.90
2011,04,05,15,35,9.90
2011,04,05,15,36,9.80
2011,04,05,15,37,9.70
2011,04,05,15,38,9.70
2011,04,05,15,39,9.70
2011,04,05,15,40,9.70
2011,04,05,15,41,9.80
2011,04,05,15,42,9.90
2011,04,05,15,43,9.90
2011,04,05,15,44,9.90
2011,04,05,15,45,9.90
2011,04,05,15,46,9.90
2011,04,05,15,47,9.90
2011,04,05,15,48,9.90
2011,04,05,15,49,10.00
2011,04,05,15,50,10.10
2011,04,05,15,51,10.10
2011,04,05,15,52,10.10
2011,04,05,15,53,10.00
2011,04,05,15,54,10.00
2011,04,05,15,55,9.90
2011,04,05,15,56,9.80
2011,04,05,15,57,9.80
2011,04,05,15,58,9.80
2011,04,05,15,59,9.70
2011,04,05,16,00,9.70
2011,04,05,16,01,9.60
2011,04,05,16,02,9.60
2011,04,05,16,03,9.50
2011,04,05,16,04,9.40
2011,04,05,16,05,9.40
2011,04,05,16,06,9.40
2011,04,05,16,07,9.30
2011,04,05,16,08,9.10
2011,04,05,16,09,9.00
2011,04,05,16,10,8.90
2011,04,05,16,11,8.70
2011,04,05,16,12,8.70
2011,04,05,16,13,8.60
2011,04,05,16,14,8.60
2011,04,05,16,15,8.60
2011,04,05,16,16,8.50
2011,04,05,16,17,8.40
2011,04,05,16,18,8.40
2011,04,05,16,19,8.40
2011,04,05,16,20,8.40
2011,04,05,16,21,8.50
2011,04,05,16,22,8.40
2011,04,05,16,23,8.40
2011,04,05,16,24,8.40
2011,04,05,16,25,8.40
2011,04,05,16,26,8.30
2011,04,05,16,27,8.30
2011,04,05,16,28,8.10
2011,04,05,16,29,8.10
2011,04,05,16,30,8.10
2011,04,05,16,31,8.00
2011,04,05,16,32,7.90
2011,04,05,16,33,7.90
2011,04,05,16,34,7.90
2011,04,05,16,35,7.80
2011,04,05,16,36,7.80
2011,04,05,16,37,7.80
2011,04,05,16,38,7.80
2011,04,05,16,39,7.70
2011,04,05,16,40,7.70
2011,04,05,16,41,7.70
2011,04,05,16,42,7.70
2011,04,05,16,43,7.70
2011,04,05,16,44,7.70
2011,04,05,16,45,7.60
2011,04,05,16,46,7.50
2011,04,05,16,47,7.50
2011,04,05,16,48,7.40
2011,04,05,16,49,7.40
2011,04,05,16,50,7.30
2011,04,05,16,51,7.30
2011,04,05,16,52,7.30
2011,04,05,16,53,7.20
2011,04,05,16,54,7.20
2011,04,05,16,55,7.20
2011,04,05,16,56,7.20
2011,04,05,16,57,7.20
2011,04,05,16,58,7.20
2011,04,05,16,59,7.20
2011,04,05,17,00,7.20
2011,04,05,17,01,7.20
2011,04,05,17,02,7.20
2011,04,05,17,03,7.20
2011,04,05,17,04,7.20
2011,04,05,17,05,7.10
2011,04,05,17,06,7.10
2011,04,05,17,07,7.10
2011,04,05,17,08,7.10
2011,04,05,17,09,7.00
2011,04,05,17,10,7.10
2011,04,05,17,11,7.10
2011,04,05,17,12,7.10
2011,04,05,17,13,7.10
2011,04,05,17,14,7.20
2011,04,05,17,15,7.20
2011,04,05,17,16,7.20
2011,04,05,17,17,7.20
2011,04,05,17,18,7.20
2011,04,05,17,19,7.20
2011,04,05,17,20,7.20
2011,04,05,17,21,7.20
2011,04,05,17,22,7.20
2011,04,05,17,23,7.20
2011,04,05,17,24,7.20
2011,04,05,17,25,7.20
2011,04,05,17,26,7.30
2011,04,05,17,27,7.30
2011,04,05,17,28,7.30
2011,04,05,17,29,7.20
2011,04,05,17,30,7.20
2011,04,05,17,31,7.20
2011,04,05,17,32,7.20
2011,04,05,17,33,7.20
2011,04,05,17,34,7.20
2011,04,05,17,35,7.20
2011,04,05,17,36,7.20
2011,04,05,17,37,7.20
2011,04,05,17,38,7.20
2011,04,05,17,39,7.20
2011,04,05,17,40,7.20
2011,04,05,17,41,7.20
2011,04,05,17,42,7.20
2011,04,05,17,43,7.20
2011,04,05,17,44,7.30
2011,04,05,17,45,7.30
2011,04,05,17,46,7.30
2011,04,05,17,47,7.30
2011,04,05,17,48,7.40
2011,04,05,17,49,7.40
2011,04,05,17,50,7.40
2011,04,05,17,51,7.40
2011,04,05,17,52,7.50
2011,04,05,17,53,7.40
2011,04,05,17,54,7.50
2011,04,05,17,55,7.50
2011,04,05,17,56,7.40
2011,04,05,17,57,7.40
2011,04,05,17,58,7.30
2011,04,05,17,59,7.20
2011,04,05,18,00,7.20
2011,04,05,18,01,7.20
2011,04,05,18,02,7.20
2011,04,05,18,03,7.10
2011,04,05,18,04,7.10
2011,04,05,18,05,7.10
2011,04,05,18,06,7.10